FW7889 Weather Reports


time (UTC)temp
C
wind
direction
speed
KPH
gust
KPH
rain 1hr
cm
rain 24hr
cm
rain mn
cm
humidity
%
barometer
mb
20260903065711 17 282 3.2 3.2 0.00 0.00 0.00 99 1068.7
20260903064709 17 284 1.6 3.2 0.00 0.00 0.00 99 1068.7
20260903063707 17 244 4.8 4.8 0.00 0.00 0.00 99 1068.7
20260903062703 17 271 3.2 3.2 0.00 0.00 0.00 99 1068.3
20260903061659 17 285 1.6 1.6 0.00 0.00 0.00 99 1068.2
20260903060659 17 274 0.0 0.0 0.00 0.00 0.00 99 1067.9
20260903055658 17 265 0.0 0.0 0.00 0.00 0.00 99 1068.2
20260903054657 17 272 4.8 8.0 0.00 0.00 0.00 99 1068.7
20260903053654 17 264 1.6 1.6 0.00 0.00 0.00 99 1068.4
20260903052651 17 268 6.4 8.0 0.00 0.00 0.00 99 1068.4
20260903051647 17 273 1.6 1.6 0.00 0.00 0.00 99 1068.4
20260903050643 17 266 4.8 8.0 0.00 0.00 0.00 99 1068.4
20260903045643 17 241 0.0 1.6 0.00 0.00 0.00 99 1068.4
20260903044641 17 274 1.6 1.6 0.00 0.00 0.00 99 1068.7
20260903043640 17 277 1.6 3.2 0.00 0.00 0.00 99 1068.8
20260903042638 17 274 3.2 3.2 0.00 0.00 0.00 99 1069.1
20260903041636 17 272 4.8 4.8 0.00 0.00 0.00 99 1068.9
20260903040636 18 287 11.3 12.9 0.00 0.00 0.00 99 1068.5
20260903035633 18 268 4.8 4.8 0.00 0.53 0.53 99 1068.5
20260903034629 18 296 4.8 4.8 0.00 0.53 0.53 99 1068.5
20260903033626 18 271 4.8 4.8 0.00 0.53 0.53 99 1068.3
20260903032627 18 273 0.0 0.0 0.00 0.53 0.53 99 1068.0
20260903031623 18 287 4.8 8.0 0.18 0.53 0.53 99 1067.9
20260903030620 18 284 1.6 3.2 0.00 0.51 0.51 99 1067.7
20260903025616 17 292 4.8 4.8 0.30 0.51 0.51 99 1068.4
20260903024612 17 297 6.4 8.0 0.13 0.46 0.46 99 1068.0
20260903023608 18 301 3.2 4.8 0.48 0.41 0.41 99 1067.4
20260903022608 17 275 6.4 8.0 0.43 0.33 0.33 99 1069.0
20260903021608 17 290 6.4 8.0 0.30 0.25 0.25 99 1069.3
20260903020604 18 274 9.7 12.9 0.30 0.18 0.18 99 1069.5
20260903015559 18 265 1.6 1.6 0.30 0.13 0.13 99 1069.2
20260903014554 18 243 1.6 3.2 0.18 0.08 0.08 99 1069.4
20260903013555 18 210 4.8 4.8 0.13 0.05 0.05 99 1069.1
20260903012554 18 212 4.8 4.8 0.00 0.03 0.03 99 1069.4
20260903011554 18 241 4.8 8.0 0.18 0.03 0.03 99 1069.3
20260903010549 18 219 8.0 11.3 0.00 0.00 0.00 99 1069.6
20260903005548 18 200 4.8 8.0 0.00 0.00 0.00 99 1070.0
20260903004544 18 216 6.4 9.7 0.00 0.00 0.00 99 1069.8
20260903003540 18 229 6.4 9.7 0.00 0.00 0.00 99 1069.6
20260903002536 18 215 6.4 8.0 0.00 0.00 0.00 99 1069.7
20260903001531 18 223 3.2 4.8 0.00 0.00 0.00 99 1069.9
20260903000526 18 249 3.2 3.2 0.00 0.00 0.00 99 1069.9
20260902235525 18 202 4.8 8.0 0.00 0.00 0.00 99 1070.4
20260902234520 18 201 6.4 9.7 0.00 0.00 0.00 99 1070.2
20260902233519 18 216 6.4 9.7 0.00 0.00 0.00 99 1070.2
20260902232519 19 244 3.2 4.8 0.00 0.00 0.00 99 1069.3
20260902231514 19 238 4.8 8.0 0.00 0.00 0.00 99 1068.9
20260902230514 19 221 4.8 4.8 0.00 0.00 0.00 98 1068.4
20260902225509 19 194 12.9 16.1 0.00 0.00 0.00 98 1068.5
20260902224508 19 189 9.7 12.9 0.00 0.00 0.00 97 1069.0
20260902223506 20 204 3.2 3.2 0.00 0.00 0.00 97 1068.9
20260902222504 20 203 8.0 9.7 0.00 0.00 0.00 97 1068.9
20260902221503 20 199 3.2 3.2 0.00 0.00 0.00 97 1069.1
20260902220459 20 169 8.0 11.3 0.00 0.00 0.00 97 1069.4
20260902215455 20 201 4.8 9.7 0.00 0.00 0.00 96 1070.3
20260902214450 20 238 3.2 3.2 0.00 0.00 0.00 96 1070.5
20260902213446 20 228 3.2 3.2 0.00 0.00 0.00 96 1071.5
20260902212446 21 282 3.2 3.2 0.00 0.00 0.00 95 1071.7
20260902211444 21 194 1.6 3.2 0.00 0.00 0.00 94 1071.4
20260902210445 21 268 0.0 0.0 0.00 0.00 0.00 94 1071.5
20260902205444 21 226 4.8 8.0 0.00 0.00 0.00 94 1071.5
20260902204444 21 199 3.2 3.2 0.00 0.00 0.00 93 1071.2
20260902203441 21 297 1.6 3.2 0.00 0.00 0.00 93 1071.6
20260902202436 21 249 3.2 4.8 0.00 0.00 0.00 93 1071.3
20260902201434 21 218 4.8 4.8 0.00 0.00 0.00 92 1071.6
20260902200429 21 244 4.8 4.8 0.00 0.00 0.00 92 1071.5
20260902195426 21 252 3.2 3.2 0.00 0.00 0.00 91 1071.5
20260902194425 22 242 3.2 3.2 0.00 0.00 0.00 90 1071.5
20260902193422 22 211 6.4 9.7 0.00 0.00 0.00 88 1071.2
20260902192420 22 207 11.3 12.9 0.00 0.00 0.00 88 1071.4
20260902191420 22 202 8.0 11.3 0.00 0.00 0.00 87 1071.2
20260902190416 22 243 3.2 3.2 0.00 0.00 0.00 85 1071.6
20260902185414 21 203 9.7 12.9 0.00 0.00 0.00 89 1071.3
20260902184409 21 156 6.4 9.7 0.00 0.00 0.00 91 1071.2
20260902183408 21 145 9.7 12.9 0.00 0.00 0.00 91 1071.5
20260902182406 21 196 4.8 8.0 0.00 0.00 0.00 91 1071.9
20260902181402 21 151 4.8 4.8 0.00 0.00 0.00 92 1072.0
20260902180358 21 193 4.8 8.0 0.00 0.00 0.00 93 1072.2
20260902175354 21 257 3.2 3.2 0.00 0.00 0.00 95 1072.1
20260902174353 20 221 3.2 3.2 0.00 0.00 0.00 97 1072.1
20260902173347 18 246 3.2 3.2 0.00 0.00 0.00 99 1072.2
20260902172347 18 195 4.8 8.0 0.00 0.00 0.00 99 1072.4
20260902171344 18 194 6.4 9.7 0.00 0.00 0.00 99 1072.4
20260902170341 18 205 3.2 3.2 0.00 0.00 0.00 99 1072.5
20260902165341 18 219 1.6 1.6 0.00 0.00 0.00 99 1072.6
20260902164337 18 253 3.2 3.2 0.00 0.00 0.00 99 1072.5
20260902163336 18 255 1.6 1.6 0.00 0.00 0.00 99 1072.6
20260902162336 18 260 1.6 1.6 0.00 0.00 0.00 99 1072.5
20260902161332 18 244 1.6 1.6 0.00 0.00 0.00 99 1072.4
20260902160329 18 228 1.6 3.2 0.00 0.00 0.00 99 1072.3
20260902155326 18 179 3.2 3.2 0.00 0.00 0.00 99 1072.6
20260902154323 18 239 3.2 3.2 0.00 0.00 0.00 99 1072.6
20260902153320 18 239 4.8 4.8 0.00 0.00 0.00 99 1072.8
20260902152318 18 173 4.8 4.8 0.00 0.00 0.00 99 1072.8
20260902151314 18 194 3.2 4.8 0.00 0.00 0.00 99 1072.7
20260902150311 18 199 4.8 8.0 0.00 0.00 0.00 99 1072.5
20260902145306 18 175 8.0 11.3 0.00 0.00 0.00 99 1072.9
20260902144303 18 211 3.2 3.2 0.00 0.00 0.00 99 1073.1
20260902143258 18 190 1.6 3.2 0.00 0.00 0.00 99 1073.0
20260902142256 18 184 6.4 9.7 0.00 0.00 0.00 99 1073.0
20260902141252 18 208 1.6 3.2 0.00 0.00 0.00 99 1072.9
20260902140247 18 238 1.6 1.6 0.00 0.00 0.00 99 1073.3
20260902135242 18 219 3.2 3.2 0.00 0.00 0.00 99 1073.1
20260902134237 18 272 0.0 1.6 0.00 0.00 0.00 99 1073.3
20260902133237 18 243 3.2 4.8 0.00 0.00 0.00 99 1073.3
20260902132234 18 198 4.8 8.0 0.00 0.00 0.00 99 1072.7
20260902131232 18 233 1.6 1.6 0.00 0.00 0.00 99 1073.0
20260902130227 18 260 1.6 1.6 0.00 0.00 0.00 99 1073.1
20260902125224 18 256 0.0 0.0 0.00 0.00 0.00 99 1073.4
20260902124221 18 243 1.6 1.6 0.00 0.00 0.00 99 1073.1
20260902123218 18 248 1.6 1.6 0.00 0.00 0.00 99 1073.0
20260902122213 18 251 1.6 1.6 0.00 0.00 0.00 99 1072.9
20260902121208 18 247 1.6 1.6 0.00 0.00 0.00 99 1072.6
20260902120206 18 176 6.4 9.7 0.00 0.00 0.00 99 1072.6
20260902115202 18 248 3.2 3.2 0.00 0.00 0.00 99 1072.6
20260902114159 18 207 3.2 3.2 0.00 0.00 0.00 99 1072.4
20260902113155 18 191 3.2 3.2 0.00 0.00 0.00 99 1072.6
20260902112152 18 232 1.6 3.2 0.00 0.00 0.00 99 1072.3
20260902111148 18 253 1.6 3.2 0.00 0.00 0.00 99 1072.1
20260902110146 18 236 1.6 1.6 0.00 0.00 0.00 99 1072.3
20260902105141 18 200 4.8 4.8 0.00 0.00 0.00 99 1072.6
20260902104137 18 259 0.0 0.0 0.00 0.00 0.00 99 1072.6
20260902103132 18 233 1.6 1.6 0.00 0.00 0.00 99 1072.5
20260902102131 18 220 1.6 1.6 0.00 0.00 0.00 99 1072.8
20260902101131 18 246 0.0 0.0 0.00 0.00 0.00 99 1072.6
20260902100127 18 199 1.6 1.6 0.00 0.00 0.00 99 1072.4
20260902095126 18 259 0.0 0.0 0.00 0.00 0.00 99 1072.8
20260902094123 18 275 0.0 0.0 0.00 0.00 0.00 99 1072.8
20260902093118 18 217 1.6 1.6 0.00 0.00 0.00 99 1072.6
20260902092113 18 226 0.0 1.6 0.00 0.00 0.00 99 1072.6
20260902091110 18 204 1.6 1.6 0.00 0.00 0.00 99 1072.7
20260902090105 18 155 3.2 3.2 0.00 0.00 0.00 99 1072.7
20260902085100 18 220 1.6 1.6 0.00 0.00 0.00 99 1072.7
20260902084058 18 177 1.6 3.2 0.00 0.00 0.00 99 1072.8
20260902083053 18 179 4.8 4.8 0.00 0.00 0.00 99 1072.6
20260902082051 18 169 3.2 3.2 0.00 0.00 0.00 99 1072.8
20260902081047 18 193 4.8 4.8 0.00 0.00 0.00 99 1072.8
20260902080045 18 216 1.6 1.6 0.00 0.00 0.00 99 1072.6
20260902075040 18 184 1.6 3.2 0.00 0.00 0.00 99 1072.6
20260902074036 18 125 4.8 4.8 0.00 0.00 0.00 99 1072.8
20260902073034 18 186 1.6 3.2 0.00 0.00 0.00 99 1072.6
20260902072032 18 145 4.8 4.8 0.00 0.00 0.00 99 1072.8
20260902071028 17 156 3.2 3.2 0.00 0.00 0.00 99 1072.7